Location: Bush Observatory
(40.2653°N, 94.3194°W)
Time: 23:16:26
(UTC-05:00)

Iridium 13 - Visible Passes

Search period start: 22 May 2015 00:00
Search period end: 01 June 2015 00:00
Orbit: 776 x 779 km, 86.4° (Epoch: 22 May)

Date Brightness Start Highest point End Pass type
(mag) Time Alt. Az. Time Alt. Az. Time Alt. Az.
22 May 8.3 04:32:03 10° ESE 04:34:48 15° E 04:37:48 10° NE visible
24 May 7.0 05:03:18 10° SSE 05:08:05 39° E 05:12:57 10° NNE visible
25 May 8.0 04:30:56 10° SE 04:34:45 22° E 04:38:44 10° NNE visible
26 May 8.5 03:59:57 10° E 04:01:30 12° ENE 04:03:22 10° ENE visible
27 May 6.2 05:03:02 10° SSE 05:08:07 57° E 05:13:15 10° N visible
28 May 7.3 04:30:15 10° SE 04:34:43 31° E 04:39:19 10° NNE visible
29 May 8.1 03:58:15 10° ESE 04:01:25 17° E 04:04:50 10° NE visible
30 May 5.6 05:02:59 10° S 05:08:11 84° E 05:13:26 10° N visible
31 May 6.6 04:29:50 10° SSE 04:34:44 45° E 04:39:42 10° NNE visible
